Location: Göttingen
(51.5413°N, 9.9158°E)
Time: 17:03:58
(UTC+02:00)

BEESAT - Pass Details

Date: 08 July 2022
Orbit: 700 x 706 km, 98.6° (Epoch: 13 August)

Event Time Altitude Azimuth Distance (km) Brightness Sun altitude
Rises 22:19:59 0° 13° (NNE) 3,110 ? -5.6°
Reaches altitude 10° 22:22:16 10° 10° (N) 2,188 ? -5.9°
Maximum altitude 22:27:00 64° 290° (WNW) 783 ? -6.4°
Drops below altitude 10° 22:31:43 10° 209° (SSW) 2,174 ? -6.8°
Sets 22:33:58 0° 207° (SSW) 3,089 ? -7.1°
